Hayward, WI

3:31 AM CST on February 11, 2016 (GMT -0600)
Sawyer County

Weather History for KHYR - April, 2014

Change the Weather History Date:

Thursday, April 17, 2014

  Actual Average (WUND) Record (WUND)
Temperature  
Mean Temperature 30 °F -  
Max Temperature 36 °F - - (-1)
Min Temperature 21 °F - - (-1)
Degree Days  
Heating Degree Days 36    
Moisture  
Dew Point 26 °F    
Average Humidity 87    
Maximum Humidity 92    
Minimum Humidity 67    
Precipitation  
Precipitation 0.18 in - - ()
Sea Level Pressure  
Sea Level Pressure 30.16 in    
Wind  
Wind Speed 6 mph (NNE)    
Max Wind Speed 10 mph    
Max Gust Speed -    
Visibility 5 miles    
Events Fog , Snow    
Averages and records for this station are not official NWS values.
T = Trace of Precipitation, MM = Missing Value Source: NWS Daily Summary

Daily Weather History Graph

Daily Weather History Graph

Search for Another Location

Airport or City:

Trip Planner

Search our weather history database for the weather conditions in past years. The results will help you decide how hot, cold, wet, or windy it might be!

Date:

Astronomy

Apr. 17, 2014 Rise Set
Actual Time 6:15 AM CDT 7:55 PM CDT
Civil Twilight 5:44 AM CDT 8:27 PM CDT
Nautical Twilight 5:06 AM CDT 9:05 PM CDT
Astronomical Twilight 4:24 AM CDT 9:47 PM CDT
Moon 10:48 PM CDT (4/17) 7:42 AM CDT (4/17)
Length of Visible Light 14h 42m
Length of Day
13h 39m
Waning Gibbous, 93% of the Moon is Illuminated
Apr 17
Waning Gibbous
Apr 22
Last Quarter
Apr 29
New
May 6
First Quarter
May 14
Full

Hourly Weather History & Observations

Time (CDT) Temp. Windchill Dew Point Humidity Pressure Visibility Wind Dir Wind Speed Gust Speed Precip Events Conditions
12:20 AM 30.0 °F 21.1 °F 26.1 °F 85% 30.03 in 5.0 mi NNE 10.4 mph - 0.00 in Snow Light Snow
12:53 AM 30.0 °F 22.4 °F 27.0 °F 88% 30.09 in 3.0 mi NE 8.1 mph - 0.00 in Snow Light Snow
12:57 AM 30.0 °F 24.1 °F 27.0 °F 88% 30.03 in 1.8 mi NNE 5.8 mph - 0.02 in Snow Light Snow
1:02 AM 30.0 °F 22.4 °F 27.0 °F 88% 30.03 in 1.0 mi NE 8.1 mph - 0.02 in Snow Light Snow
1:40 AM 28.9 °F 22.8 °F 27.0 °F 92% 30.03 in 0.8 mi NNE 5.8 mph - 0.04 in Snow Light Snow
1:53 AM 28.9 °F 20.4 °F 27.0 °F 92% 30.08 in 1.0 mi NNE 9.2 mph - 0.05 in Snow Light Snow
2:01 AM 28.9 °F 22.8 °F 27.0 °F 92% 30.03 in 1.0 mi NNE 5.8 mph - 0.01 in Snow Light Snow
2:08 AM 28.9 °F 21.9 °F 27.0 °F 92% 30.03 in 0.8 mi NNE 6.9 mph - 0.01 in Snow Light Snow
2:34 AM 28.9 °F 21.9 °F 27.0 °F 92% 30.03 in 0.8 mi Variable 6.9 mph - 0.04 in Snow Light Snow
2:42 AM 28.9 °F 22.8 °F 27.0 °F 92% 30.02 in 1.0 mi Variable 5.8 mph - 0.04 in Snow Light Snow
2:53 AM 28.9 °F 21.9 °F 27.0 °F 92% 30.08 in 1.5 mi NNE 6.9 mph - 0.05 in Snow Light Snow
2:57 AM 28.9 °F 21.9 °F 27.0 °F 92% 30.02 in 2.0 mi NNE 6.9 mph - 0.00 in Snow Light Snow
3:12 AM 28.9 °F 21.9 °F 27.0 °F 92% 30.02 in 1.2 mi Variable 6.9 mph - 0.00 in Snow Light Snow
3:21 AM 28.9 °F 21.9 °F 27.0 °F 92% 30.02 in 1.0 mi NNE 6.9 mph - 0.01 in Snow Light Snow
3:46 AM 28.9 °F 22.8 °F 27.0 °F 92% 30.03 in 1.2 mi NNE 5.8 mph - 0.02 in Snow Light Snow
3:53 AM 28.9 °F 22.8 °F 27.0 °F 92% 30.08 in 1.0 mi NNE 5.8 mph - 0.03 in Snow Light Snow
4:25 AM 28.9 °F 21.9 °F 26.1 °F 89% 30.03 in 0.8 mi Variable 6.9 mph - 0.03 in Snow Light Snow
4:44 AM 28.9 °F 22.8 °F 26.1 °F 89% 30.04 in 1.0 mi Variable 5.8 mph - 0.04 in Snow Light Snow
4:53 AM 28.9 °F 21.9 °F 27.0 °F 92% 30.09 in 1.2 mi Variable 6.9 mph - 0.04 in Snow Light Snow
5:02 AM 28.9 °F 21.1 °F 26.1 °F 89% 30.04 in 2.0 mi North 8.1 mph - 0.01 in Snow Light Snow
5:10 AM 28.9 °F 22.8 °F 26.1 °F 89% 30.04 in 2.0 mi NNE 5.8 mph - 0.01 in Snow Light Snow
5:35 AM 28.9 °F 23.9 °F 26.1 °F 89% 30.04 in 6.0 mi Variable 4.6 mph - 0.01 in Snow Light Snow
5:53 AM 28.9 °F 23.9 °F 26.1 °F 89% 30.10 in 10.0 mi Variable 4.6 mph - 0.01 in   Overcast
6:53 AM 28.9 °F 22.8 °F 26.1 °F 89% 30.12 in 10.0 mi Variable 5.8 mph - N/A   Overcast
7:11 AM 28.9 °F 25.2 °F 26.1 °F 89% 30.08 in 9.0 mi Variable 3.5 mph - N/A   Overcast
7:53 AM 28.9 °F 25.2 °F 27.0 °F 92% 30.14 in 3.0 mi Variable 3.5 mph - N/A   Overcast
8:06 AM 30.0 °F 24.1 °F 27.0 °F 88% 30.10 in 2.5 mi NNE 5.8 mph - N/A   Overcast
8:18 AM 30.0 °F 24.1 °F 27.0 °F 88% 30.10 in 3.0 mi NNE 5.8 mph - N/A   Overcast
8:53 AM 30.0 °F 26.5 °F 28.0 °F 92% 30.17 in 4.0 mi Variable 3.5 mph - N/A   Overcast
9:53 AM 30.9 °F 26.2 °F 28.0 °F 89% 30.19 in 10.0 mi Variable 4.6 mph - N/A   Overcast
12:24 PM 30.9 °F 23.5 °F 28.0 °F 89% 30.21 in 8.0 mi NW 8.1 mph - N/A   Overcast
12:53 PM 30.9 °F 26.2 °F 28.0 °F 89% 30.26 in 10.0 mi Variable 4.6 mph - N/A   Overcast
1:02 PM 32.0 °F 28.7 °F 28.0 °F 85% 30.21 in 10.0 mi Variable 3.5 mph - N/A   Overcast
1:49 PM 32.0 °F 26.4 °F 28.4 °F 87% 30.21 in 10.0 mi WNW 5.8 mph - N/A   Overcast
1:53 PM 33.1 °F 26.1 °F 28.0 °F 82% 30.27 in 10.0 mi WNW 8.1 mph - N/A   Overcast
2:20 PM 34.0 °F 29.8 °F 27.0 °F 75% 30.21 in 10.0 mi Variable 4.6 mph - N/A   Overcast
2:53 PM 34.0 °F 28.0 °F 27.0 °F 75% 30.27 in 10.0 mi NW 6.9 mph - N/A   Overcast
3:53 PM 34.0 °F 29.8 °F 27.0 °F 75% 30.28 in 10.0 mi Variable 4.6 mph - N/A   Overcast
4:53 PM 35.1 °F 31.0 °F 26.1 °F 70% 30.31 in 10.0 mi Variable 4.6 mph - N/A   Overcast
5:53 PM 35.1 °F 31.0 °F 25.0 °F 67% 30.32 in 10.0 mi WNW 4.6 mph - N/A   Overcast
6:53 PM 34.0 °F - 25.0 °F 70% 30.32 in 10.0 mi Calm Calm - N/A   Overcast
7:53 PM 33.1 °F - 30.0 °F 89% 30.32 in 10.0 mi Calm Calm - N/A   Overcast
8:53 PM 32.0 °F - 28.0 °F 85% 30.35 in 10.0 mi Calm Calm - N/A   Overcast
9:53 PM 28.0 °F - 26.1 °F 92% 30.36 in 9.0 mi Calm Calm - N/A   Clear
10:19 PM 28.0 °F - 25.0 °F 88% 30.30 in 2.5 mi Calm Calm - N/A   Clear
10:26 PM 27.0 °F - 24.1 °F 89% 30.30 in 7.0 mi Calm Calm - N/A   Clear
10:43 PM 25.0 °F - 23.0 °F 92% 30.30 in 1.0 mi Calm Calm - N/A   Clear
10:53 PM 25.0 °F - 21.9 °F 88% 30.36 in 0.2 mi Calm Calm - N/A Fog Light Freezing Fog
11:19 PM 24.1 °F - 21.0 °F 88% 30.30 in 1.5 mi Calm Calm - N/A   Partly Cloudy
11:24 PM 24.1 °F - 19.9 °F 84% 30.30 in 0.8 mi Calm Calm - N/A   Mist
11:53 PM 21.9 °F - 19.0 °F 89% 30.36 in 0.2 mi Calm Calm - N/A Fog Light Freezing Fog